sat.trackr.live / text

‹ back to catalog

PICO-01A003

NORAD 58326 · 2023-174BY

PAYLOAD ACTIVE UNKNOWN

§ Identity

Operator
Country
IT
Launch date
2023-11-11
Launch site
AFWTR
Launch vehicle
Mass (kg)
RCS (m²)

External: N2YO · Heavens-Above · Gunter

§ Orbital elements

Epoch: 2026-09-21T21:42:44.459136Z

Period
92.91 min
Inclination
97.3740°
Eccentricity
0.0005699
Mean motion
15.49818171 rev/d
Perigee alt
413.4 km
Apogee alt
421.1 km
Semi-major
6,795.4 km
B*
3.3435e-4
RAAN
352.2118°
Arg perigee
155.7557°
Mean anomaly
204.3964°
Rev number
16,037

§ Raw data

PICO-01A0031 58326U 23174BY  26264.90468124  .00018551  00000+0  33435-3 0  99952 58326  97.3740 352.2118 0005699 155.7557 204.3964 15.49818171160372

JSON: /api/v1/satellites/58326 · /tle

For live sub-satellite position, see the globe view (requires WebGL).

§ Visibility from observer

Set your observer location to see the next 7 days of passes ≥ 10°. The values pass through the URL so the page stays shareable.

No JS? Fill the form by hand. The geolocation button needs JavaScript.